Rochester, MN

6:43 PM CDT on May 22, 2017 (GMT -0500)
Rochester International

Weather History for KRST - March, 2013

Change the Weather History Date:

Tuesday, March 5, 2013

  Actual Average Record
Temperature  
Mean Temperature 27 °F 27 °F  
Max Temperature 29 °F 35 °F 65 °F (2000)
Min Temperature 24 °F 20 °F -17 °F (1960)
Degree Days  
Heating Degree Days 38 38  
Month to date heating degree days 213 193  
Since 1 July heating degree days 5664 6054  
Cooling Degree Days 0 0  
Month to date cooling degree days 0 0  
Year to date cooling degree days 0 0  
Moisture  
Dew Point 21 °F    
Average Humidity 81    
Maximum Humidity 88    
Minimum Humidity 74    
Precipitation  
Precipitation 0.29 in 0.05 in 0.62 in (2004)
Month to date precipitation 0.56 0.24  
Year to date precipitation 2.56 1.93  
Snow  
Snow 4.70 in 0.30 in 4.70 in (2013)
Month to date snowfall 8.9 1.7  
Since 1 July snowfall 40.7 41.6  
Snow Depth 10.00 in    
Sea Level Pressure  
Sea Level Pressure 30.03 in    
Wind  
Wind Speed 10 mph (NE)    
Max Wind Speed 18 mph    
Max Gust Speed 23 mph    
Visibility 3 miles    
Events Fog , Snow    
T = Trace of Precipitation, MM = Missing Value Source: NWS Daily Summary

Daily Weather History Graph

Daily Weather History Graph

Search for Another Location

Airport or City:

Trip Planner

Search our weather history database for the weather conditions in past years. The results will help you decide how hot, cold, wet, or windy it might be!

Date:

Astronomy

Mar. 05, 2013 Rise Set
Actual Time 6:39 AM CST 6:04 PM CST
Civil Twilight 6:10 AM CST 6:32 PM CST
Nautical Twilight 5:37 AM CST 7:06 PM CST
Astronomical Twilight 5:03 AM CST 7:39 PM CST
Moon 2:01 AM CST (3/5) 11:34 AM CST (3/5)
Length of Visible Light 12h 22m
Length of Day
11h 24m
Last Quarter, 40% of the Moon is Illuminated
Mar 5
Last Quarter
Mar 11
New
Mar 19
First Quarter
Mar 27
Full
Apr 2
Last Quarter

Hourly Weather History & Observations

Time (CST) Temp. Windchill Dew Point Humidity Pressure Visibility Wind Dir Wind Speed Gust Speed Precip Events Conditions
12:13 AM 24.8 °F 16.9 °F 21.2 °F 86% 29.97 in 2.0 mi ENE 6.9 mph - 0.01 in Snow Light Snow
1:26 AM 24.8 °F 16.9 °F 21.2 °F 86% 29.95 in 3.0 mi East 6.9 mph - 0.00 in Snow Light Snow
1:49 AM 24.8 °F 17.9 °F 21.2 °F 86% 29.95 in 1.8 mi East 5.8 mph - 0.01 in Snow Light Snow
1:50 AM 24.8 °F 17.9 °F 21.2 °F 86% 29.95 in 1.8 mi East 5.8 mph - N/A Snow Light Snow
2:03 AM 26.6 °F 20.0 °F 21.2 °F 80% 29.95 in 1.0 mi East 5.8 mph - 0.01 in Snow Light Snow
2:12 AM 26.6 °F 20.0 °F 21.2 °F 80% 29.94 in 0.8 mi East 5.8 mph - N/A Snow Light Snow
2:21 AM 26.6 °F 20.0 °F 23.0 °F 86% 29.94 in 0.8 mi East 5.8 mph - 0.03 in Snow Light Snow
2:36 AM 26.6 °F 20.0 °F 23.0 °F 86% 29.94 in 1.2 mi East 5.8 mph - 0.04 in Snow Light Snow
2:44 AM 24.8 °F 19.1 °F 23.0 °F 93% 29.94 in 1.2 mi East 4.6 mph - 0.04 in Snow Light Snow
2:51 AM 26.6 °F 21.2 °F 23.0 °F 86% 29.94 in 2.0 mi East 4.6 mph - 0.05 in Snow Light Snow
2:54 AM 26.1 °F 21.9 °F 23.0 °F 88% 29.99 in 2.0 mi East 3.5 mph - 0.05 in Snow Light Snow
3:05 AM 24.8 °F 20.5 °F 23.0 °F 93% 29.94 in 1.8 mi ENE 3.5 mph - 0.00 in Snow Light Snow
3:24 AM 24.8 °F 19.1 °F 21.2 °F 86% 29.93 in 1.2 mi ENE 4.6 mph - 0.01 in Snow Light Snow
3:54 AM 25.0 °F 19.3 °F 21.9 °F 88% 29.99 in 0.8 mi ENE 4.6 mph - 0.03 in Snow Light Snow
3:59 AM 24.8 °F 19.1 °F 21.2 °F 86% 29.93 in 1.0 mi ENE 4.6 mph - 0.00 in Snow Light Snow
4:13 AM 24.8 °F 19.1 °F 21.2 °F 86% 29.93 in 0.8 mi ENE 4.6 mph - 0.02 in Snow Light Snow
4:27 AM 24.8 °F 19.1 °F 21.2 °F 86% 29.94 in 0.5 mi East 4.6 mph - 0.03 in Fog , Snow Snow
4:44 AM 24.8 °F 14.6 °F 21.2 °F 86% 29.94 in 1.0 mi ESE 10.4 mph - 0.05 in Snow Light Snow
4:54 AM 25.0 °F 15.5 °F 21.0 °F 85% 30.00 in 1.0 mi ESE 9.2 mph - 0.06 in Snow Light Snow
5:54 AM 24.8 °F 16.9 °F 21.2 °F 86% 29.94 in 1.0 mi East 6.9 mph - N/A Snow Light Snow
6:16 AM 24.8 °F 16.9 °F 21.2 °F 86% 29.94 in 1.0 mi East 6.9 mph - 0.02 in Snow Light Snow
6:23 AM 24.8 °F 16.9 °F 21.2 °F 86% 29.94 in 0.8 mi East 6.9 mph - 0.02 in Snow Light Snow
6:54 AM 24.8 °F 16.9 °F 21.2 °F 86% 29.94 in 0.5 mi ENE 6.9 mph - N/A Fog , Snow Snow
7:16 AM 24.8 °F 16.9 °F 21.2 °F 86% 29.95 in 0.5 mi East 6.9 mph - 0.02 in Fog , Snow Snow
7:54 AM 24.1 °F 14.4 °F 21.0 °F 88% 30.00 in 0.8 mi ENE 9.2 mph - 0.04 in Snow Light Snow
8:04 AM 24.8 °F 16.1 °F 21.2 °F 86% 29.95 in 0.5 mi ENE 8.1 mph - 0.01 in Fog , Snow Snow
8:50 AM 24.8 °F 16.1 °F 21.2 °F 86% 29.95 in 0.8 mi NE 8.1 mph - 0.04 in Snow Light Snow
8:54 AM 25.0 °F 17.1 °F 21.0 °F 85% 30.01 in 0.8 mi NE 6.9 mph - 0.04 in Snow Light Snow
9:14 AM 24.8 °F 16.1 °F 21.2 °F 86% 29.95 in 0.8 mi NE 8.1 mph - 0.00 in Snow Light Snow
9:54 AM 25.0 °F 15.5 °F 19.9 °F 81% 30.01 in 0.8 mi NE 9.2 mph - 0.01 in Snow Light Snow
10:54 AM 26.1 °F 16.8 °F 21.0 °F 81% 30.03 in 0.8 mi NNE 9.2 mph - 0.01 in Snow Light Snow
10:59 AM 26.6 °F 16.8 °F 21.2 °F 80% 29.97 in 1.2 mi NNE 10.4 mph - 0.00 in Snow Light Snow
11:12 AM 26.6 °F 17.5 °F 21.2 °F 80% 29.97 in 1.0 mi NNE 9.2 mph - 0.01 in Snow Light Snow
11:19 AM 26.6 °F 17.5 °F 21.2 °F 80% 29.98 in 0.8 mi NNE 9.2 mph - 0.01 in Snow Light Snow
11:32 AM 26.6 °F 17.5 °F 21.2 °F 80% 29.98 in 1.0 mi NNE 9.2 mph - 0.02 in Snow Light Snow
11:50 AM 26.6 °F 15.7 °F 21.2 °F 80% 29.98 in 0.8 mi North 12.7 mph - 0.02 in Snow Light Snow
11:54 AM 26.1 °F 15.6 °F 21.0 °F 81% 30.04 in 0.8 mi North 11.5 mph - 0.02 in Snow Light Snow
12:08 PM 26.6 °F 15.7 °F 21.2 °F 80% 29.98 in 0.8 mi North 12.7 mph - 0.00 in Snow Light Snow
12:10 PM 26.6 °F 15.7 °F 21.2 °F 80% 29.98 in 1.0 mi North 12.7 mph - 0.00 in Snow Light Snow
12:27 PM 26.6 °F 16.2 °F 21.2 °F 80% 29.98 in 1.5 mi North 11.5 mph - 0.00 in Snow Light Snow
12:30 PM 26.6 °F 16.2 °F 21.2 °F 80% 29.98 in 2.0 mi NNE 11.5 mph - 0.00 in Snow Light Snow
12:54 PM 27.0 °F 16.1 °F 19.9 °F 75% 30.04 in 6.0 mi NNE 12.7 mph - 0.00 in   Overcast
1:03 PM 26.6 °F 16.2 °F 21.2 °F 80% 29.98 in 6.0 mi NNE 11.5 mph - 0.00 in   Overcast
1:46 PM 28.4 °F 19.1 °F 21.2 °F 74% 29.99 in 2.5 mi North 10.4 mph - 0.00 in Snow Light Snow
1:54 PM 28.0 °F 18.6 °F 21.0 °F 75% 30.04 in 2.5 mi North 10.4 mph - 0.00 in Snow Light Snow
2:14 PM 28.4 °F 17.5 °F 21.2 °F 74% 30.00 in 3.0 mi North 13.8 mph - 0.01 in Snow Light Snow
2:54 PM 28.0 °F 17.0 °F 21.0 °F 75% 30.07 in 3.0 mi North 13.8 mph - 0.01 in Snow Light Snow
3:54 PM 28.0 °F 17.0 °F 21.0 °F 75% 30.09 in 6.0 mi North 13.8 mph - 0.00 in   Overcast
4:54 PM 27.0 °F 14.7 °F 19.9 °F 75% 30.13 in 9.0 mi North 16.1 mph - N/A   Overcast
5:10 PM 26.6 °F 14.7 °F 19.4 °F 74% 30.08 in 9.0 mi North 15.0 mph - N/A   Overcast
5:26 PM 26.6 °F 14.7 °F 19.4 °F 74% 30.09 in 8.0 mi North 15.0 mph - N/A   Overcast
5:54 PM 26.1 °F 14.5 °F 19.9 °F 78% 30.17 in 6.0 mi North 13.8 mph - N/A   Haze
6:54 PM 26.1 °F 16.2 °F 19.9 °F 78% 30.20 in 5.0 mi North 10.4 mph - 0.00 in Snow Light Snow
7:01 PM 26.6 °F 16.8 °F 19.4 °F 74% 30.14 in 5.0 mi North 10.4 mph - 0.00 in Snow Light Snow
7:54 PM 25.0 °F 14.2 °F 19.9 °F 81% 30.22 in 9.0 mi North 11.5 mph - 0.00 in   Overcast
8:54 PM 25.0 °F 14.2 °F 19.0 °F 78% 30.24 in 10.0 mi North 11.5 mph - N/A   Overcast
9:54 PM 24.1 °F 12.5 °F 18.0 °F 77% 30.26 in 10.0 mi NNW 12.7 mph - N/A   Overcast
10:00 PM 24.8 °F 13.4 °F 17.6 °F 74% 30.19 in 10.0 mi NNW 12.7 mph - N/A   Overcast
10:54 PM 24.1 °F 12.0 °F 19.9 °F 84% 30.27 in 10.0 mi NNW 13.8 mph - N/A   Overcast
11:30 PM 24.8 °F 13.4 °F 19.4 °F 80% 30.21 in 10.0 mi North 12.7 mph - N/A   Overcast
11:54 PM 24.1 °F 14.4 °F 19.0 °F 81% 30.28 in 10.0 mi NNW 9.2 mph - N/A   Overcast